When you browse on this site, cookies collect data to enhance your experience and personalize the content and advertising you see.
Visit our Privacy Policy to learn more. By continuing to use the site, you agree to this use of cookies and data.
  • Em Portugal
  • Lista de países
  • Para 7 dias
  • Temperatura da água
  • Mapa do tempo
  • Widgets de tempo
  • user-avatar
    Iniciar Sessão

    Previsão horária em Beja

    Hoje, 18 Setembro, Quarta-feira

    Tempo Temperatura Precipitação Vento Pressão Humidade
    00:00 +16°C° 0 mm 1 m/s 740 mmHg 91%
    01:00 +15°C° 0 mm 1 m/s 740 mmHg 92%
    02:00 +15°C° 0 mm 1 m/s 740 mmHg 93%
    03:00 +15°C° 0 mm 1 m/s 740 mmHg 93%
    04:00 +15°C° 0 mm 1 m/s 740 mmHg 93%
    05:00 +14°C° 0 mm 1 m/s 740 mmHg 93%
    06:00 +18°C° 0 mm 1 m/s 741 mmHg 82%
    07:00 +20°C° 0 mm 1 m/s 741 mmHg 71%
    08:00 +22°C° 0 mm 1 m/s 741 mmHg 60%
    09:00 +25°C° 0 mm 1 m/s 741 mmHg 52%
    10:00 +27°C° 0 mm 1 m/s 742 mmHg 43%
    11:00 +29°C° 0 mm 2 m/s 742 mmHg 34%
    12:00 +30°C° 0 mm 2 m/s 741 mmHg 31%
    13:00 +30°C° 0 mm 2 m/s 741 mmHg 28%
    14:00 +31°C° 0 mm 3 m/s 741 mmHg 26%
    15:00 +29°C° 0 mm 4 m/s 741 mmHg 33%
    16:00 +27°C° 0 mm 5 m/s 741 mmHg 41%
    17:00 +24°C° 0 mm 6 m/s 741 mmHg 49%
    18:00 +22°C° 0 mm 5 m/s 741 mmHg 60%
    19:00 +20°C° 0 mm 4 m/s 741 mmHg 70%
    20:00 +18°C° 0 mm 3 m/s 741 mmHg 81%
    21:00 +17°C° 0 mm 3 m/s 741 mmHg 84%
    22:00 +16°C° 0 mm 2 m/s 741 mmHg 87%
    23:00 +16°C° 0 mm 2 m/s 741 mmHg 90%

    Amanhã, 19 Setembro, Quinta-feira

    Tempo Temperatura Precipitação Vento Pressão Humidade
    00:00 +15°C° 0 mm 2 m/s 741 mmHg 91%
    01:00 +15°C° 0 mm 2 m/s 741 mmHg 91%
    02:00 +15°C° 0 mm 1 m/s 741 mmHg 92%
    03:00 +15°C° 0 mm 1 m/s 741 mmHg 92%
    04:00 +14°C° 0 mm 1 m/s 741 mmHg 92%
    05:00 +14°C° 0 mm 1 m/s 741 mmHg 93%
    06:00 +16°C° 0 mm 2 m/s 741 mmHg 83%
    07:00 +18°C° 0 mm 2 m/s 742 mmHg 72%
    08:00 +21°C° 0 mm 2 m/s 742 mmHg 62%
    09:00 +24°C° 0 mm 2 m/s 742 mmHg 53%
    10:00 +26°C° 0 mm 2 m/s 742 mmHg 45%
    11:00 +29°C° 0 mm 2 m/s 742 mmHg 36%
    12:00 +29°C° 0 mm 3 m/s 741 mmHg 33%
    13:00 +30°C° 0 mm 3 m/s 741 mmHg 31%
    14:00 +31°C° 0 mm 3 m/s 740 mmHg 28%
    15:00 +29°C° 0 mm 4 m/s 740 mmHg 37%
    16:00 +27°C° 0 mm 5 m/s 740 mmHg 46%
    17:00 +24°C° 0 mm 6 m/s 740 mmHg 54%
    18:00 +22°C° 0 mm 5 m/s 740 mmHg 63%
    19:00 +20°C° 0 mm 5 m/s 741 mmHg 71%
    20:00 +19°C° 0 mm 4 m/s 741 mmHg 79%
    21:00 +18°C° 0 mm 3 m/s 741 mmHg 83%
    22:00 +17°C° 0 mm 3 m/s 740 mmHg 86%
    23:00 +17°C° 0 mm 2 m/s 740 mmHg 90%

    Depois de amanhã, 20 Setembro, Sexta-feira

    Tempo Temperatura Precipitação Vento Pressão Humidade
    00:00 +17°C° 0 mm 2 m/s 740 mmHg 90%
    01:00 +17°C° 0 mm 2 m/s 740 mmHg 90%
    02:00 +17°C° 0 mm 2 m/s 740 mmHg 90%
    03:00 +17°C° 0.1 mm 2 m/s 740 mmHg 89%
    04:00 +17°C° 0.1 mm 2 m/s 740 mmHg 88%
    05:00 +17°C° 0.1 mm 3 m/s 739 mmHg 86%
    06:00 +18°C° 0 mm 2 m/s 740 mmHg 82%
    07:00 +19°C° 0 mm 2 m/s 740 mmHg 77%
    08:00 +20°C° 0 mm 1 m/s 740 mmHg 72%
    09:00 +22°C° 0 mm 1 m/s 740 mmHg 63%
    10:00 +24°C° 0 mm 1 m/s 740 mmHg 54%
    11:00 +26°C° 0 mm 2 m/s 740 mmHg 45%
    12:00 +26°C° 0 mm 2 m/s 740 mmHg 43%
    13:00 +27°C° 0 mm 3 m/s 740 mmHg 40%
    14:00 +27°C° 0 mm 4 m/s 739 mmHg 38%
    15:00 +26°C° 0 mm 4 m/s 739 mmHg 42%
    16:00 +25°C° 0 mm 4 m/s 739 mmHg 46%
    17:00 +23°C° 0 mm 4 m/s 739 mmHg 50%
    18:00 +21°C° 0 mm 4 m/s 739 mmHg 63%
    19:00 +19°C° 0 mm 3 m/s 739 mmHg 76%
    20:00 +17°C° 0 mm 3 m/s 739 mmHg 89%
    21:00 +17°C° 0 mm 2 m/s 739 mmHg 91%
    22:00 +16°C° 0 mm 2 m/s 739 mmHg 93%
    23:00 +16°C° 0 mm 1 m/s 738 mmHg 95%

    21 Setembro, Sábado

    Tempo Temperatura Precipitação Vento Pressão Humidade
    00:00 +16°C° 0 mm 1 m/s 738 mmHg 95%
    01:00 +15°C° 0 mm 1 m/s 738 mmHg 95%
    02:00 +15°C° 0 mm 1 m/s 738 mmHg 94%
    03:00 +15°C° 0 mm 1 m/s 738 mmHg 94%
    04:00 +15°C° 0 mm 2 m/s 738 mmHg 93%
    05:00 +16°C° 0 mm 2 m/s 738 mmHg 92%
    06:00 +17°C° 0.2 mm 3 m/s 738 mmHg 87%
    07:00 +18°C° 0.2 mm 3 m/s 738 mmHg 83%
    08:00 +19°C° 0.2 mm 4 m/s 738 mmHg 78%
    09:00 +21°C° 0.1 mm 5 m/s 738 mmHg 72%
    10:00 +22°C° 0.1 mm 5 m/s 738 mmHg 67%
    11:00 +23°C° 0.1 mm 6 m/s 738 mmHg 61%
    12:00 +24°C° 0 mm 6 m/s 738 mmHg 60%
    13:00 +24°C° 0 mm 6 m/s 738 mmHg 59%
    14:00 +24°C° 0 mm 6 m/s 738 mmHg 59%
    15:00 +23°C° 0.2 mm 5 m/s 738 mmHg 65%
    16:00 +22°C° 0.2 mm 5 m/s 738 mmHg 70%
    17:00 +21°C° 0.2 mm 5 m/s 738 mmHg 76%
    18:00 +21°C° 0.1 mm 4 m/s 738 mmHg 80%
    19:00 +20°C° 0.1 mm 4 m/s 739 mmHg 85%
    20:00 +19°C° 0.1 mm 4 m/s 740 mmHg 89%
    21:00 +18°C° 0 mm 3 m/s 740 mmHg 90%
    22:00 +18°C° 0 mm 3 m/s 740 mmHg 91%
    23:00 +17°C° 0 mm 3 m/s 740 mmHg 92%

    22 Setembro, Domingo

    Tempo Temperatura Precipitação Vento Pressão Humidade
    00:00 +16°C° 0 mm 3 m/s 740 mmHg 92%
    01:00 +15°C° 0 mm 2 m/s 740 mmHg 93%
    02:00 +14°C° 0 mm 2 m/s 740 mmHg 94%
    03:00 +14°C° 0 mm 2 m/s 740 mmHg 94%
    04:00 +13°C° 0 mm 2 m/s 740 mmHg 94%
    05:00 +13°C° 0 mm 1 m/s 741 mmHg 93%
    06:00 +15°C° 0 mm 2 m/s 741 mmHg 84%
    07:00 +17°C° 0 mm 2 m/s 742 mmHg 75%
    08:00 +19°C° 0 mm 3 m/s 742 mmHg 66%
    09:00 +21°C° 0 mm 3 m/s 742 mmHg 57%
    10:00 +22°C° 0 mm 3 m/s 742 mmHg 48%
    11:00 +25°C° 0 mm 3 m/s 743 mmHg 40%
    12:00 +26°C° 0 mm 3 m/s 742 mmHg 35%
    13:00 +27°C° 0 mm 4 m/s 742 mmHg 30%
    14:00 +28°C° 0 mm 4 m/s 742 mmHg 26%
    15:00 +26°C° 0 mm 4 m/s 742 mmHg 30%
    16:00 +25°C° 0 mm 4 m/s 742 mmHg 35%
    17:00 +23°C° 0 mm 5 m/s 742 mmHg 40%
    18:00 +21°C° 0 mm 5 m/s 742 mmHg 46%
    19:00 +19°C° 0 mm 4 m/s 743 mmHg 53%
    20:00 +18°C° 0 mm 4 m/s 743 mmHg 59%
    21:00 +17°C° 0 mm 4 m/s 743 mmHg 62%
    22:00 +16°C° 0 mm 3 m/s 743 mmHg 65%
    23:00 +15°C° 0 mm 2 m/s 743 mmHg 68%

    23 Setembro, Segunda-feira

    Tempo Temperatura Precipitação Vento Pressão Humidade
    00:00 +14°C° 0 mm 2 m/s 743 mmHg 69%
    01:00 +14°C° 0 mm 2 m/s 743 mmHg 70%
    02:00 +13°C° 0 mm 1 m/s 743 mmHg 71%
    03:00 +13°C° 0 mm 1 m/s 743 mmHg 71%
    04:00 +13°C° 0 mm 2 m/s 743 mmHg 71%
    05:00 +13°C° 0 mm 2 m/s 743 mmHg 70%
    06:00 +15°C° 0 mm 2 m/s 743 mmHg 61%
    07:00 +18°C° 0 mm 2 m/s 743 mmHg 51%
    08:00 +20°C° 0 mm 2 m/s 744 mmHg 42%
    09:00 +24°C° 0 mm 2 m/s 744 mmHg 35%
    10:00 +26°C° 0 mm 1 m/s 744 mmHg 27%
    11:00 +29°C° 0 mm 1 m/s 744 mmHg 20%
    12:00 +30°C° 0 mm 1 m/s 743 mmHg 18%
    13:00 +31°C° 0 mm 1 m/s 743 mmHg 16%
    14:00 +31°C° 0 mm 2 m/s 742 mmHg 14%
    15:00 +30°C° 0 mm 2 m/s 742 mmHg 16%
    16:00 +29°C° 0 mm 3 m/s 742 mmHg 18%
    17:00 +27°C° 0 mm 3 m/s 742 mmHg 20%
    18:00 +25°C° 0 mm 3 m/s 742 mmHg 29%
    19:00 +21°C° 0 mm 3 m/s 743 mmHg 37%
    20:00 +19°C° 0 mm 3 m/s 743 mmHg 45%
    21:00 +18°C° 0 mm 3 m/s 743 mmHg 49%
    22:00 +17°C° 0 mm 3 m/s 743 mmHg 53%
    23:00 +16°C° 0 mm 2 m/s 743 mmHg 56%
    Mostrar mais